Regional Weather Roundup
Issued by NWS

Home | Current Version | Previous Version | Text Only | Print | Product List | Glossary Off
Versions: 1 2 3 4 5 6 7 8 9 10 11 12 13 14 15 16 17 18 19 20 21 22 23 24 25 26 27 28 29 30 31 32 33 34 35 36 37 38 39 40 41 42 43 44 45 46 47 48 49 50

000
ASUS43 KOAX 231510
RWRNE

WEATHER ROUNDUP FOR NEBRASKA
NATIONAL WEATHER SERVICE OMAHA NE
1000 AM CDT SUN JUL 23 2017

NOTES: SATELLITE DATA IS BEING USED TO AUGMENT CLOUD COVER ABOVE
       12000 FEET.
       "FAIR" INDICATES FEW OR NO CLOUDS BELOW 12,000 FEET WITH NO
       SIGNIFICANT WEATHER AND/OR OBSTRUCTIONS TO VISIBILITY.


NEZ001>004-019>022-054>056-231600-
NEBRASKA PANHANDLE

CITY           SKY/WX    TMP DP  RH WIND       PRES   REMARKS
SCOTTSBLUFF    SUNNY     75  55  49 VRB3      30.14S
ALLIANCE       SUNNY     77  51  40 VRB5      30.14S
CHADRON        SUNNY     71  47  42 CALM      30.11S
GORDON         FAIR      72  53  50 E8        30.14R
KIMBALL        SUNNY     79  49  35 S7        30.21R
SIDNEY         SUNNY     82  43  25 SW9       30.17S
$$

NEZ057>060-069>072-079>082-231600-
SOUTHWEST NEBRASKA

CITY           SKY/WX    TMP DP  RH WIND       PRES   REMARKS
NORTH PLATTE   SUNNY     77  58  51 CALM      30.10R
IMPERIAL       SUNNY     78  56  46 VRB5      30.12R
LEXINGTON      SUNNY     73  64  73 CALM      30.07S
MCCOOK         SUNNY     77  61  57 VRB3      30.08R
OGALLALA       SUNNY     80  53  39 NE6       30.13R
$$

NEZ005>010-023>029-035>040-094-231600-
NORTH CENTRAL NEBRASKA

CITY           SKY/WX    TMP DP  RH WIND       PRES   REMARKS
VALENTINE      SUNNY     77  48  35 E6        30.10S
AINSWORTH      SUNNY     75  56  52 NE7       30.10S
BROKEN BOW     SUNNY     78  61  55 N3        30.07R
O`NEILL        SUNNY     73  63  68 N6        30.07R
ORD            SUNNY     75  64  68 N5        30.03R
THEDFORD       SUNNY     78  55  45 E8        30.11S
$$

NEZ041-046>049-061>064-073>077-083>087-231600-
SOUTH CENTRAL NEBRASKA

CITY           SKY/WX    TMP DP  RH WIND       PRES   REMARKS
GRAND ISLAND   SUNNY     78  64  61 NW7       30.03S
AURORA         SUNNY     78  67  70 S3        30.02S
HASTINGS       SUNNY     78  68  71 CALM      30.05S
HEBRON         SUNNY     82  71  70 NW3       30.00S
HOLDREGE       SUNNY     74  66  76 N3        30.07R
KEARNEY        SUNNY     79  64  60 NW5       30.06R
YORK           SUNNY     75  70  83 CALM      30.01F
$$

NEZ011>018-030>034-042>045-231600-
NORTHEAST NEBRASKA

CITY           SKY/WX    TMP DP  RH WIND       PRES   REMARKS
NORFOLK        SUNNY     78  60  53 NE7       30.01R
ALBION         SUNNY     77  64  64 N9        30.02R
BLAIR          SUNNY     78  69  73 CALM      29.98S
COLUMBUS       SUNNY     76  66  71 CALM      30.00R
FREMONT        SUNNY     79  68  68 SW3       29.99S
TEKAMAH        SUNNY     79  68  69 N7        29.96S
WAYNE          SUNNY     78  65  64 NE7       30.00R
$$

NEZ050>053-065>068-078-088>093-231600-
SOUTHEAST NEBRASKA

CITY           SKY/WX    TMP DP  RH WIND       PRES   REMARKS
LINCOLN        MOSUNNY   79  71  76 W5        29.99S
OMAHA EPPLEY   MOSUNNY   77  72  84 W3        29.97F
BEATRICE       MOSUNNY   81  73  75 NW6       29.98S
FALLS CITY     CLOUDY    80  74  81 NW8       29.95S
NEBRASKA CITY  MOSUNNY   79  79 100 NW3       29.97S
PLATTSMOUTH    CLOUDY    74  73  96 NW6       29.98S FOG
$$

NEZ044-045-051>053-067-231600-
OMAHA AREA

CITY           SKY/WX    TMP DP  RH WIND       PRES   REMARKS
OMAHA EPPLEY   MOSUNNY   77  72  84 W3        29.97F
BLAIR          SUNNY     78  69  73 CALM      29.98S
FREMONT        SUNNY     79  68  68 SW3       29.99S
MILLARD        SUNNY     81  71  72 CALM      29.97F
OFFUTT AFB     SUNNY     78  74  87 N6        29.97S
PLATTSMOUTH    CLOUDY    74  73  96 NW6       29.98S FOG
WAHOO          FAIR      76  67  73 CALM      29.99S
$$




USA.gov is the U.S. government's official web portal to all federal, state and local government web resources and services.